This is the latest recevied weather packets stored in our database for station/object JH5EWP-13. If no packets are shown the sender has not sent any weather packets the latest 10 day(s).
| Time | Temp. | Humidity | Pressure | Rain* | Wind** | Luminosity | Snow |
|---|---|---|---|---|---|---|---|
| 1778249182 | 15° C | 47% | 1005.9 hPa | 0 mm | - | - | - |
| 1778248283 | 15° C | 48% | 1005.7 hPa | 0 mm | - | - | - |
| 1778247383 | 15° C | 52% | 1005.7 hPa | 0 mm | - | - | - |
| 1778246483 | 15.56° C | 52% | 1005.5 hPa | 0 mm | - | - | - |
| 1778245583 | 15.56° C | 52% | 1005.9 hPa | 0 mm | - | - | - |
| 1778244683 | 15.56° C | 52% | 1005.6 hPa | 0 mm | - | - | - |
| 1778243783 | 16.11° C | 50% | 1005.4 hPa | 0 mm | - | - | - |
| 1778242882 | 16.67° C | 49% | 1005.2 hPa | 0 mm | - | - | - |
| 1778241984 | 16.67° C | 56% | 1005.1 hPa | 0 mm | - | - | - |
| 1778241084 | 16.67° C | 52% | 1004.8 hPa | 0 mm | - | - | - |
| 1778240184 | 16.67° C | 42% | 1004.6 hPa | 0 mm | - | - | - |
| 1778239284 | 16.67° C | 42% | 1004.5 hPa | 0 mm | - | - | - |
| 1778238384 | 16.67° C | 40% | 1004 hPa | 0 mm | - | - | - |
| 1778237484 | 17.22° C | 40% | 1003.7 hPa | 0 mm | - | - | - |
| 1778236584 | 17.78° C | 33% | 1003.6 hPa | 0 mm | - | - | - |
| 1778235684 | 18.33° C | 33% | 1003.3 hPa | 0 mm | - | - | - |
| 1778234784 | 18.33° C | 35% | 1002.9 hPa | 0 mm | - | - | - |
| 1778233884 | 18.89° C | 35% | 1002.9 hPa | 0 mm | - | - | - |
| 1778232983 | 18.89° C | 34% | 1002.6 hPa | 0 mm | - | - | - |
| 1778232083 | 20° C | 38% | 1002.2 hPa | 0 mm | - | - | - |
| 1778231183 | 20.56° C | 36% | 1001.9 hPa | 0 mm | - | - | - |
| 1778230283 | 20.56° C | 41% | 1001.7 hPa | 0 mm | - | - | - |
| 1778229383 | 21.11° C | 41% | 1001.7 hPa | 0 mm | - | - | - |
| 1778228483 | 20.56° C | 48% | 1001.4 hPa | 0 mm | - | - | - |
| 1778227583 | 20.56° C | 46% | 1001.2 hPa | 0 mm | - | - | - |
* Rain latest hour (hover to see other rain measurements)
** Current wind speed in m/s (hover to see current wind gust speed)